Dewpoint
-2 -1 1 -0 -2 -4 -2 -2 -1 -1 -2 -2 -1 -2 -2 -2 -2 -2 -2 -2 -3 -3 -4 -5 -5 -6 -2 2 5 6 6 8 8 8 8 8 8 7 6 6 7 7 7 7
-1 0 -2 -3 -2 -2 -2 -1 -1 -1 -2 -2 -1 -1 -2 -2 -1 -1 -0 1 0 -1 -2 -3 -4 -4 -6 -4 1 4 5 7 8 9 8 9 9 8 7 7 7 7 8 8
-1 -3 -3 -3 -2 -1 -2 -1 -1 -1 -1 -2 -2 -3 -2 -2 -1 -0 1 2 2 1 -0 -1 -2 -4 -5 -5 -5 1 5 7 9 9 9 9 9 8 7 7 8 9 9 9
-4 -3 -2 -2 -1 -2 -0 -3 -2 0 0 2 -4 -1 -10 -1 -1 0 1 1 2 3 3 2 1 -1 -4 -5 -5 -3 5 7 9 10 10 10 9 9 8 8 9 10 10 9
-2 -0 -1 -1 -2 -4 -2 -2 -1 -1 1 0 -0 -0 -9 -1 -1 0 1 0 1 3 4 4 4 4 2 -0 -2 -0 4 7 8 10 11 10 10 10 10 9 9 9 8 8
-1 -1 -3 -3 -0 -2 -1 -1 -1 -0 1 3 -1 -4 -8 -1 -1 1 0 -0 0 2 3 5 6 7 7 7 6 6 7 8 9 10 10 11 11 11 10 9 8 7 7 7
1 0 -1 -1 1 0 -2 -0 4 3 3 2 -1 -2 -6 -5 -1 1 -0 -1 -0 0 2 3 4 5 7 8 9 9 9 9 10 10 10 10 10 10 9 8 7 7 7 7
3 3 1 -1 0 2 -1 -2 3 -1 2 -1 0 2 -3 2 1 -0 -1 -1 -1 -1 -1 0 2 3 4 4 5 5 6 7 8 9 9 9 9 8 7 6 6 7 5 3
0 -2 -1 -1 -1 -1 0 -1 -5 1 1 -1 0 -1 1 2 -0 -1 -2 -2 -3 -2 -2 -2 -2 -0 1 2 3 3 4 5 6 5 6 6 6 6 7 6 2 -1 -1 -1
-2 1 0 -1 -2 -2 -2 -3 -0 -1 1 -1 -1 1 -3 4 1 -1 -1 -3 -4 -4 -4 -5 -5 -4 -4 -3 -3 -2 -2 -1 -1 -1 -1 -1 -1 -2 -3 -3 -4 -5 -5 -6
-4 -1 2 -0 1 1 0 -0 -1 -1 -0 0 -4 -3 -2 1 2 -0 -2 -3 -5 -6 -7 -7 -8 -9 -9 -9 -9 -9 -9 -9 -10 -11 -13 -14 -16 -19 -21 -23 -25 -27 -28 -28
-3 0 3 2 -1 -1 -1 -0 -2 -0 -0 -1 -1 -5 -1 -1 1 -1 -2 -4 -6 -8 -9 -10 -11 -13 -15 -17 -18 -20 -22 -23 -24 -25 -26 -27 -27 -28 -28 -29 -30 -31 -31 -32
-2 -1 3 2 1 -1 1 0 -2 -2 -1 0 -0 -5 -1 -1 -0 -1 -2 -4 -6 -8 -9 -11 -12 -15 -17 -19 -21 -22 -23 -24 -24 -25 -26 -27 -29 -30 -30 -30 -30 -30 -31 -31
-4 -1 -4 -4 -4 1 2 1 -0 -3 0 -3 -2 -3 1 1 -0 -2 -3 -4 -6 -9 -11 -12 -14 -15 -17 -19 -21 -22 -23 -24 -25 -26 -27 -27 -28 -28 -28 -28 -29 -31 -31 -32
-1 1 -1 -0 -0 0 1 1 0 -1 -3 -3 -5 -3 -1 0 -1 -2 -3 -4 -6 -7 -10 -12 -15 -16 -17 -19 -21 -22 -23 -23 -24 -24 -25 -25 -25 -26 -27 -28 -29 -29 -30 -30
1 3 2 3 1 0 1 1 0 -1 -2 -2 -2 -2 -2 -1 -1 -3 -3 -4 -5 -8 -10 -12 -14 -16 -17 -19 -20 -21 -22 -23 -23 -24 -24 -25 -25 -26 -26 -26 -26 -27 -27 -28
3 3 3 4 1 1 2 1 1 0 -1 -1 1 0 -1 -1 -2 -3 -4 -5 -6 -8 -11 -13 -15 -16 -18 -19 -20 -21 -21 -21 -22 -23 -24 -24 -24 -23 -23 -22 -23 -23 -24 -25
3 2 2 3 1 5 -1 -2 -1 0 -0 -1 -1 -1 -2 -2 -2 -3 -4 -6 -7 -10 -11 -13 -15 -16 -17 -18 -18 -19 -20 -21 -22 -23 -22 -22 -22 -21 -21 -21 -21 -22 -23 -25
0 1 2 2 -1 -0 -1 -1 0 1 1 -2 -3 -2 -3 -4 -5 -6 -5 -7 -10 -12 -13 -14 -14 -15 -16 -17 -18 -19 -19 -19 -19 -19 -20 -19 -19 -19 -19 -20 -21 -22 -23 -25
0 1 3 1 3 4 -1 -3 -3 -3 1 -5 -3 -4 -4 -4 -1 -5 -7 -9 -10 -11 -13 -13 -14 -14 -15 -16 -16 -17 -17 -18 -18 -18 -18 -18 -18 -19 -19 -20 -21 -22 -23 -24
3 3 3 4 3 2 -3 -3 -3 0 -1 -5 -3 -4 -4 -3 -4 -6 -8 -9 -11 -11 -12 -12 -13 -14 -14 -15 -15 -16 -16 -16 -17 -17 -17 -17 -17 -18 -18 -19 -21 -22 -23 -23
2 3 3 3 5 4 -3 -3 -1 -3 -5 -5 -4 -4 -4 -5 -6 -7 -8 -9 -9 -9 -8 -11 -13 -14 -14 -14 -14 -14 -15 -15 -15 -16 -16 -16 -17 -17 -19 -20 -21 -23 -23 -22
2 0 1 1 2 -6 -5 -4 -5 -5 -5 -4 -4 -5 -5 -6 -7 -7 -7 -7 -3 -3 -9 -12 -12 -13 -13 -13 -13 -14 -14 -14 -15 -15 -15 -16 -17 -18 -19 -21 -22 -22 -23 -23
-2 -3 -1 -1 -3 -5 -7 -7 -4 -5 -5 -5 -5 -6 -6 -6 -5 -3 -2 -2 -7 -11 -11 -12 -12 -12 -12 -13 -13 -13 -13 -14 -14 -15 -16 -17 -18 -19 -19 -20 -20 -20 -21 -22
-4 -4 -3 -4 -5 -4 -6 -6 -5 -5 -4 -4 -4 -4 -3 -2 -1 -2 -6 -9 -11 -11 -11 -11 -12 -12 -12 -12 -13 -13 -14 -14 -15 -16 -17 -18 -18 -18 -18 -18 -18 -18 -18 -18
-8 -7 -2 -2 -5 -5 -6 -7 -6 -4 -5 -6 -7 -4 -2 -3 -6 -8 -10 -11 -11 -11 -11 -11 -12 -12 -12 -13 -13 -14 -16 -16 -17 -17 -17 -17 -17 -17 -18 -18 -19 -20 -20 -20
Wind_Speed
6 4 9 11 7 2 6 5 5 0 2 3 5 3 1 5 7 9 7 4 2 7 9 11 12 14 19 21 21 19 18 17 16 15 13 9 6 5 5 6 6 7 7 8
4 11 7 7 6 5 5 5 3 2 3 2 2 5 2 3 4 5 7 7 3 3 7 10 13 15 18 19 21 22 20 18 17 15 12 9 5 4 3 3 4 6 7 9
8 3 13 8 6 7 2 7 5 5 3 3 1 5 3 1 4 5 8 8 7 4 4 6 9 14 18 21 22 23 22 21 19 18 16 13 10 5 2 2 2 4 6 8
4 3 11 8 6 6 7 6 7 9 4 3 2 4 4 3 2 3 6 8 9 9 8 7 6 9 14 19 21 22 23 22 20 20 19 17 12 7 5 3 3 4 6 7
8 9 9 5 6 7 5 7 7 4 5 4 1 2 4 2 5 4 3 6 9 10 11 11 10 9 11 15 18 20 22 21 21 20 19 19 17 13 10 8 8 7 9 11
3 2 4 6 5 4 13 8 8 5 3 0 5 5 5 6 6 5 5 7 10 12 15 16 15 14 13 13 14 16 17 18 18 17 18 18 17 16 14 13 11 13 14 15
2 2 1 5 9 5 2 6 3 3 1 5 2 4 8 3 3 7 13 13 12 14 16 18 18 19 19 17 16 15 14 15 14 14 13 13 13 14 12 12 14 15 16 17
7 2 8 4 5 10 7 5 6 7 5 4 1 7 6 2 6 17 18 18 17 17 17 17 18 19 19 19 18 17 16 16 13 11 10 10 10 9 9 11 14 16 17 17
6 4 1 1 3 6 6 5 5 7 3 3 4 5 2 5 6 13 18 19 19 20 19 19 19 19 19 18 17 16 15 14 13 11 9 7 5 5 7 9 10 11 12 14
8 5 1 2 4 3 4 8 3 2 6 4 3 4 5 12 13 11 14 20 21 21 21 21 21 21 21 20 20 18 17 16 14 12 9 7 4 2 1 4 6 9 11 14
5 4 1 3 6 9 4 3 3 5 3 6 4 6 4 9 17 17 18 25 26 24 23 22 21 20 19 18 17 17 16 15 13 11 9 6 5 4 4 5 8 10 13 15
6 6 4 5 1 1 1 5 5 5 5 1 3 5 1 2 16 26 25 29 27 25 24 22 21 19 18 17 16 15 14 11 11 9 7 5 5 5 7 8 11 13 15 17
10 4 4 4 4 2 4 5 4 5 3 7 6 5 3 5 15 25 28 30 29 26 24 21 19 18 17 16 14 12 11 10 9 7 6 5 5 7 9 11 14 16 18 21
15 4 11 14 6 7 6 6 5 5 3 5 6 4 3 8 15 22 28 35 32 28 25 22 19 17 15 14 12 10 9 8 6 6 6 7 9 11 14 16 18 20 22 24
6 7 4 2 6 5 6 11 15 12 17 9 9 10 9 18 20 29 30 34 33 29 25 22 19 17 15 12 11 9 7 6 6 7 8 10 12 14 15 17 19 20 22 25
2 3 3 1 4 5 4 7 19 23 13 3 5 4 3 16 21 25 33 35 33 31 26 22 19 17 14 12 10 8 6 6 7 8 10 12 13 15 17 19 21 22 24 26
6 6 3 4 1 4 2 9 12 7 5 14 10 7 7 11 20 31 34 36 37 33 28 24 20 16 13 11 9 6 5 6 6 9 11 13 15 17 18 20 21 24 26 28
10 6 2 3 0 3 5 1 2 7 3 5 5 6 13 18 19 25 34 40 38 33 28 23 19 15 12 9 7 5 5 5 7 9 11 12 14 16 18 20 23 25 26 28
1 6 3 5 4 4 2 5 7 9 7 7 8 8 17 28 24 14 30 36 35 31 26 21 17 13 10 7 5 3 5 6 8 9 12 14 16 18 20 21 23 24 26 27
3 5 4 2 5 8 4 1 4 2 3 11 13 16 25 26 8 6 33 35 32 28 23 19 15 11 8 5 3 4 5 7 9 11 14 16 18 19 20 21 22 24 26 28
4 2 6 3 2 6 4 4 2 7 6 18 24 27 29 8 2 34 36 34 30 26 21 16 12 8 5 2 2 4 6 8 10 12 14 16 17 19 21 22 23 24 26 28
6 8 3 3 2 9 8 5 8 2 10 21 24 24 21 27 38 42 38 34 28 23 17 12 8 6 4 2 2 5 8 10 12 14 15 17 18 19 21 23 24 25 27 29
2 2 5 2 3 2 3 2 8 11 23 19 28 27 34 40 43 41 35 29 22 17 15 13 10 6 3 3 6 8 10 12 13 15 16 18 19 20 21 24 25 27 28 30
1 2 4 4 3 4 8 11 16 24 28 31 30 33 39 43 37 33 27 23 22 18 14 10 7 4 3 5 8 11 12 13 15 16 18 20 21 22 22 24 25 27 28 30
2 3 5 4 3 11 11 15 20 30 35 37 36 36 37 35 31 30 27 23 18 14 10 7 5 4 5 7 10 12 13 15 17 18 19 20 22 23 25 25 26 27 26 28
5 2 1 2 13 6 8 17 25 32 30 30 32 33 32 31 31 26 22 17 13 10 8 6 4 5 7 8 10 13 14 16 19 21 22 23 25 26 27 29 31 27 28 29
Wind_Direction
171 142 196 188 178 111 143 129 140 191 191 143 200 236 57 350 33 29 24 31 152 189 201 206 213 217 216 214 214 214 211 207 208 208 209 214 225 236 242 245 252 266 277 290
107 221 189 138 147 125 125 122 120 71 68 113 142 263 94 37 56 32 27 38 55 176 203 212 218 213 210 210 210 209 209 206 207 210 214 217 220 232 241 266 283 288 289 292
170 213 150 143 154 145 157 154 174 153 120 58 19 288 208 164 107 65 49 53 56 85 143 182 196 199 206 205 203 203 203 205 208 213 215 217 218 219 187 86 30 324 296 293
205 132 157 141 180 143 166 182 130 129 104 183 16 264 262 187 173 67 44 51 57 73 93 114 145 173 186 191 194 196 200 205 208 213 217 222 223 223 216 227 276 298 298 291
217 158 146 155 193 157 188 133 125 108 99 101 300 79 254 127 228 187 89 77 77 81 88 93 102 126 154 170 181 186 192 197 202 207 212 219 224 231 238 246 265 288 301 293
120 148 146 158 65 115 146 90 55 60 89 31 200 157 263 192 195 149 149 121 107 101 98 97 97 102 118 139 156 167 178 183 190 197 202 210 218 230 238 250 261 275 279 284
103 137 75 132 84 3 102 111 49 22 13 220 343 123 244 179 184 168 155 141 124 117 114 111 110 107 108 115 126 140 153 160 169 184 193 203 217 231 244 256 266 271 274 278
148 220 174 183 173 174 184 167 148 181 192 189 90 212 260 66 111 143 143 137 131 126 123 120 118 117 115 114 117 121 128 134 141 150 160 174 189 208 231 249 257 271 282 292
133 217 100 127 143 154 193 196 149 104 26 83 193 278 202 130 120 135 144 144 135 131 128 124 122 122 123 123 120 120 122 125 130 135 140 153 177 217 247 266 282 298 310 314
200 116 312 167 120 51 166 159 89 25 140 214 251 270 236 197 186 172 159 149 140 134 129 124 121 119 117 117 117 119 119 119 116 118 122 123 126 125 340 334 330 329 328 326
140 94 278 143 213 161 139 186 70 117 141 158 159 248 222 207 183 171 163 158 151 144 138 132 125 121 117 116 118 117 117 116 115 109 101 96 80 49 10 344 340 336 334 330
181 118 148 201 292 324 173 178 147 133 206 136 141 261 25 280 170 162 163 162 157 150 144 140 135 130 127 121 115 111 108 106 101 93 82 64 43 18 358 350 345 341 337 336
172 181 99 13 353 359 209 193 157 120 99 193 152 244 12 175 155 167 157 163 161 155 148 143 139 136 130 123 118 111 104 96 89 77 62 46 20 2 353 349 346 344 341 338
153 135 199 210 195 137 187 190 172 131 156 187 221 177 211 165 163 163 165 167 166 160 154 150 146 139 133 125 117 108 100 89 74 51 31 16 6 2 357 350 344 340 338 335
150 184 139 126 141 135 171 175 174 195 216 190 219 194 199 192 180 173 162 165 166 162 157 155 149 144 136 128 119 108 92 73 51 30 17 10 4 355 346 339 335 332 330 329
63 172 117 107 154 142 172 188 193 206 209 232 140 239 349 157 152 159 166 166 165 163 159 155 152 148 140 131 120 102 82 56 34 16 8 1 350 344 339 335 332 330 328 327
124 127 117 220 79 110 325 211 189 190 184 202 196 196 140 152 168 173 167 168 167 165 162 159 157 152 141 129 115 101 79 49 21 6 356 349 344 339 335 332 330 328 328 328
144 120 86 138 131 167 247 340 212 160 181 143 99 155 166 173 171 168 170 166 167 165 162 160 155 148 138 125 111 86 54 19 2 355 348 342 337 334 332 331 331 330 330 330
136 125 102 147 197 293 324 204 164 169 226 183 136 121 116 121 118 129 173 178 168 165 161 157 152 146 137 124 103 61 24 6 358 352 347 343 341 338 336 333 330 329 328 328
41 78 113 147 145 209 236 207 201 187 297 170 147 150 145 145 156 171 174 172 159 157 156 153 150 144 134 125 94 39 6 354 346 345 344 340 337 334 332 330 328 328 327 328
100 51 159 157 183 281 218 166 164 145 235 163 158 158 158 162 176 154 163 155 154 153 151 150 145 143 132 97 11 342 337 331 334 335 332 330 330 330 329 328 327 326 327 326
153 145 181 105 154 258 153 100 168 156 102 143 144 149 138 128 134 146 151 148 148 147 146 147 152 168 182 204 298 314 319 325 328 326 326 326 327 327 326 326 328 329 329 330
188 194 166 161 178 56 78 64 143 145 134 130 140 146 139 132 137 144 144 144 147 150 161 170 177 182 205 294 309 311 313 316 316 319 322 322 324 325 327 328 329 330 331 329
38 317 99 138 37 46 52 110 136 147 139 139 135 141 143 137 141 144 146 148 159 166 168 171 176 194 245 288 301 306 309 313 317 321 322 323 324 325 324 325 328 330 331 330
358 325 117 75 60 92 79 111 137 136 135 137 139 145 145 146 152 155 155 160 162 164 167 178 206 244 282 297 303 308 311 315 317 318 317 318 318 320 320 321 325 326 327 327
350 357 202 174 158 89 127 121 137 137 137 141 144 142 147 150 150 155 152 156 161 173 191 212 247 287 300 305 307 307 310 313 314 314 316 317 317 318 319 320 319 320 321 322
Height
1489 1495 1496 1496 1497 1498 1504 1508 1511 1511 1511 1512 1517 1515 1519 1518 1517 1517 1516 1515 1515 1516 1519 1520 1523 1525 1528 1532 1536 1540 1544 1548 1552 1555 1557 1560 1562 1564 1565 1567 1568 1569 1570 1570
1492 1489 1489 1492 1495 1498 1503 1509 1511 1513 1512 1514 1517 1515 1518 1519 1519 1519 1518 1516 1514 1514 1515 1516 1518 1520 1523 1527 1531 1536 1540 1544 1548 1552 1555 1558 1561 1562 1564 1565 1566 1567 1567 1568
1482 1480 1484 1489 1496 1499 1503 1506 1511 1511 1515 1518 1518 1517 1518 1520 1520 1520 1520 1518 1516 1513 1513 1513 1514 1516 1519 1522 1526 1531 1536 1540 1545 1549 1552 1555 1558 1560 1561 1563 1564 1564 1565 1565
1478 1478 1481 1487 1493 1494 1505 1500 1505 1512 1517 1525 1523 1524 1516 1518 1520 1521 1521 1519 1518 1515 1514 1513 1513 1514 1515 1518 1522 1527 1532 1536 1540 1545 1549 1552 1555 1558 1559 1560 1561 1561 1562 1562
1474 1478 1482 1486 1482 1487 1496 1498 1505 1514 1523 1525 1526 1533 1509 1518 1518 1519 1521 1520 1519 1518 1516 1515 1514 1515 1515 1517 1520 1524 1528 1532 1536 1540 1544 1548 1552 1554 1556 1558 1559 1559 1561 1561
1471 1473 1474 1475 1484 1485 1497 1503 1514 1523 1527 1537 1521 1521 1510 1513 1508 1515 1518 1519 1519 1519 1518 1517 1517 1518 1518 1519 1521 1524 1527 1530 1534 1537 1541 1545 1548 1550 1552 1554 1556 1557 1558 1558
1471 1474 1475 1475 1486 1492 1492 1499 1533 1536 1545 1526 1529 1526 1497 1504 1506 1507 1512 1517 1518 1519 1520 1519 1520 1520 1521 1522 1523 1525 1528 1530 1533 1536 1539 1543 1545 1548 1549 1551 1552 1553 1554 1553
1475 1486 1474 1471 1475 1480 1491 1486 1511 1526 1533 1520 1532 1522 1497 1506 1506 1508 1513 1515 1517 1519 1520 1521 1521 1521 1523 1525 1526 1528 1529 1530 1533 1537 1539 1541 1543 1545 1547 1549 1550 1550 1549 1548
1465 1469 1470 1470 1471 1473 1486 1491 1490 1516 1531 1525 1521 1512 1506 1509 1511 1511 1513 1516 1517 1518 1520 1521 1523 1524 1524 1525 1527 1529 1531 1532 1534 1536 1539 1541 1542 1543 1545 1546 1547 1546 1545 1544
1445 1469 1471 1470 1469 1474 1474 1481 1494 1506 1520 1512 1514 1512 1491 1505 1506 1509 1511 1514 1517 1519 1521 1523 1524 1526 1527 1527 1528 1530 1532 1534 1536 1537 1539 1540 1542 1543 1543 1543 1543 1542 1542 1541
1440 1449 1476 1471 1467 1469 1478 1480 1485 1489 1501 1506 1511 1496 1480 1480 1489 1498 1507 1511 1514 1517 1520 1523 1525 1528 1529 1531 1532 1531 1533 1534 1536 1538 1539 1540 1541 1542 1542 1541 1541 1540 1538 1537
1437 1452 1471 1467 1464 1464 1463 1467 1471 1484 1494 1511 1508 1488 1484 1485 1487 1494 1502 1508 1513 1516 1519 1522 1525 1527 1528 1530 1533 1534 1534 1535 1536 1537 1538 1539 1539 1540 1540 1539 1538 1537 1536 1533
1427 1444 1473 1470 1469 1467 1465 1465 1464 1472 1479 1492 1494 1477 1482 1483 1488 1493 1497 1505 1511 1515 1518 1522 1525 1527 1529 1529 1531 1534 1534 1535 1537 1537 1537 1537 1537 1537 1537 1537 1536 1534 1532 1530
1414 1432 1427 1432 1433 1450 1463 1460 1461 1460 1476 1467 1474 1472 1483 1484 1484 1490 1495 1500 1508 1512 1515 1519 1523 1526 1528 1529 1529 1532 1534 1535 1536 1536 1536 1536 1536 1535 1534 1533 1532 1530 1528 1526
1415 1425 1431 1435 1436 1440 1444 1449 1454 1456 1446 1458 1450 1464 1467 1471 1472 1479 1490 1500 1506 1509 1512 1517 1520 1524 1525 1527 1528 1530 1533 1534 1535 1534 1534 1534 1534 1532 1531 1530 1529 1527 1525 1522
1415 1433 1434 1442 1439 1436 1439 1444 1441 1439 1445 1452 1460 1460 1460 1466 1475 1483 1486 1494 1501 1506 1510 1514 1519 1523 1524 1525 1527 1529 1530 1531 1532 1532 1531 1530 1530 1529 1528 1527 1525 1523 1521 1518
1415 1428 1434 1441 1443 1443 1445 1436 1438 1439 1442 1442 1454 1451 1460 1468 1470 1473 1481 1489 1495 1501 1506 1511 1516 1520 1522 1524 1525 1527 1528 1529 1529 1529 1528 1528 1527 1526 1525 1523 1521 1519 1516 1513
1410 1422 1437 1447 1451 1447 1426 1436 1433 1433 1438 1442 1445 1449 1451 1454 1464 1474 1479 1483 1492 1499 1506 1512 1515 1519 1521 1522 1524 1526 1527 1527 1526 1525 1524 1524 1523 1522 1521 1519 1517 1514 1511 1508
1402 1413 1440 1443 1465 1441 1438 1436 1434 1430 1433 1438 1442 1450 1454 1459 1468 1479 1483 1488 1491 1498 1505 1511 1514 1517 1519 1521 1523 1524 1525 1525 1524 1523 1522 1521 1519 1517 1516 1513 1511 1508 1505 1502
1408 1405 1417 1445 1435 1435 1421 1425 1425 1425 1432 1431 1435 1445 1449 1456 1468 1473 1480 1486 1492 1499 1506 1510 1513 1515 1517 1519 1520 1521 1521 1522 1522 1521 1519 1518 1516 1514 1512 1510 1506 1504 1500 1496
1412 1417 1416 1428 1435 1429 1423 1424 1427 1429 1425 1425 1431 1437 1445 1449 1454 1462 1476 1485 1492 1499 1504 1508 1511 1514 1516 1517 1518 1519 1519 1519 1518 1518 1516 1514 1512 1510 1508 1506 1503 1499 1495 1491
1401 1410 1420 1426 1427 1423 1420 1425 1426 1427 1427 1428 1433 1441 1447 1451 1458 1465 1477 1485 1492 1498 1502 1506 1509 1512 1514 1514 1515 1516 1516 1515 1515 1514 1513 1511 1509 1507 1505 1501 1498 1495 1491 1485
1402 1401 1403 1411 1413 1420 1422 1423 1422 1424 1427 1433 1437 1443 1447 1453 1461 1471 1480 1488 1493 1497 1501 1504 1507 1509 1511 1512 1513 1512 1512 1512 1511 1509 1509 1508 1505 1503 1500 1497 1493 1489 1487 1480
1406 1406 1410 1414 1423 1423 1424 1426 1425 1426 1425 1433 1442 1448 1453 1459 1469 1476 1482 1488 1493 1497 1501 1503 1505 1507 1508 1509 1509 1508 1508 1507 1506 1506 1504 1503 1501 1498 1496 1493 1488 1484 1482 1478
1413 1409 1411 1422 1426 1425 1428 1430 1431 1429 1429 1439 1447 1454 1458 1464 1472 1478 1484 1489 1493 1497 1499 1502 1504 1505 1506 1506 1505 1505 1504 1503 1502 1501 1500 1498 1495 1492 1488 1486 1482 1478 1478 1474
1420 1417 1411 1409 1413 1416 1427 1429 1432 1434 1439 1445 1449 1456 1463 1467 1472 1479 1484 1489 1492 1495 1499 1500 1502 1502 1503 1503 1502 1501 1500 1499 1497 1496 1494 1493 1489 1486 1484 1478 1474 1473 1471 1467